| time (UTC) | temp F | wind direction | speed MPH | gust MPH | rain 1hr in | rain 24hr in | rain mn in | humidity % | barometer mb |
| 20260903001318 | 85 | 261 | 0.0 | 2.0 | 0.00 | 0.00 | 0.00 | 77 | 1018.5 |
| 20260903000817 | 85 | 166 | 2.0 | 2.0 | 0.00 | 0.00 | 0.00 | 76 | 1018.5 |
| 20260903000313 | 86 | 81 | 0.0 | 3.0 | 0.00 | 0.00 | 0.00 | 75 | 1018.2 |
| 20260902235810 | 86 | 180 | 0.0 | 4.0 | 0.00 | 0.00 | 0.00 | 75 | 1018.2 |
| 20260902235306 | 86 | 120 | 0.0 | 5.0 | 0.00 | 0.00 | 0.00 | 74 | 1018.3 |
| 20260902234800 | 86 | 165 | 0.0 | 2.0 | 0.00 | 0.00 | 0.00 | 73 | 1018.2 |
| 20260902234259 | 87 | 140 | 0.0 | 3.0 | 0.00 | 0.00 | 0.00 | 73 | 1018.3 |
| 20260902233753 | 87 | 194 | 0.0 | 5.0 | 0.00 | 0.00 | 0.00 | 72 | 1018.2 |
| 20260902233248 | 87 | 195 | 2.0 | 5.0 | 0.00 | 0.00 | 0.00 | 71 | 1018.3 |
| 20260902232747 | 88 | 180 | 0.0 | 3.0 | 0.00 | 0.00 | 0.00 | 71 | 1018.3 |
| 20260902232247 | 88 | 100 | 0.0 | 5.0 | 0.00 | 0.00 | 0.00 | 71 | 1018.2 |
| 20260902231746 | 88 | 259 | 3.0 | 5.0 | 0.00 | 0.00 | 0.00 | 70 | 1018.2 |
| 20260902231241 | 88 | 131 | 0.0 | 7.0 | 0.00 | 0.00 | 0.00 | 70 | 1018.2 |
| 20260902230741 | 89 | 187 | 0.0 | 9.0 | 0.00 | 0.00 | 0.00 | 70 | 1018.4 |
| 20260902230240 | 89 | 240 | 0.0 | 6.0 | 0.00 | 0.00 | 0.00 | 69 | 1018.4 |
| 20260902225735 | 89 | 249 | 2.0 | 6.0 | 0.00 | 0.00 | 0.00 | 69 | 1018.3 |
| 20260902225230 | 89 | 174 | 5.0 | 9.0 | 0.00 | 0.00 | 0.00 | 68 | 1018.3 |
| 20260902224729 | 89 | 216 | 3.0 | 9.0 | 0.00 | 0.00 | 0.00 | 68 | 1018.2 |
| 20260902224224 | 90 | 187 | 4.0 | 9.0 | 0.00 | 0.00 | 0.00 | 67 | 1018.4 |
| 20260902223720 | 90 | 180 | 3.0 | 8.0 | 0.00 | 0.00 | 0.00 | 67 | 1018.5 |
| 20260902223219 | 90 | 236 | 4.0 | 8.0 | 0.00 | 0.00 | 0.00 | 67 | 1018.4 |
| 20260902222718 | 90 | 206 | 3.0 | 7.0 | 0.00 | 0.00 | 0.00 | 67 | 1018.4 |
| 20260902222213 | 91 | 203 | 4.0 | 11.0 | 0.00 | 0.00 | 0.00 | 65 | 1018.5 |
| 20260902221708 | 91 | 204 | 8.0 | 8.0 | 0.00 | 0.00 | 0.00 | 65 | 1018.6 |
| 20260902221207 | 91 | 180 | 0.0 | 7.0 | 0.00 | 0.00 | 0.00 | 64 | 1018.6 |
| 20260902220702 | 92 | 223 | 9.0 | 13.0 | 0.00 | 0.00 | 0.00 | 63 | 1018.7 |
| 20260902220157 | 93 | 131 | 3.0 | 11.0 | 0.00 | 0.00 | 0.00 | 62 | 1018.5 |
| 20260902215653 | 94 | 180 | 0.0 | 9.0 | 0.00 | 0.00 | 0.00 | 62 | 1018.6 |
| 20260902215148 | 94 | 203 | 5.0 | 9.0 | 0.00 | 0.00 | 0.00 | 62 | 1018.6 |
| 20260902214643 | 94 | 200 | 5.0 | 9.0 | 0.00 | 0.00 | 0.00 | 61 | 1018.7 |
| 20260902214142 | 94 | 180 | 3.0 | 13.0 | 0.00 | 0.00 | 0.00 | 60 | 1018.6 |
| 20260902213638 | 95 | 0 | 3.0 | 8.0 | 0.00 | 0.00 | 0.00 | 61 | 1019.0 |
| 20260902213137 | 94 | 218 | 7.0 | 11.0 | 0.00 | 0.00 | 0.00 | 60 | 1018.8 |
| 20260902212632 | 95 | 208 | 4.0 | 9.0 | 0.00 | 0.00 | 0.00 | 59 | 1018.5 |
| 20260902212128 | 95 | 221 | 0.0 | 6.0 | 0.00 | 0.00 | 0.00 | 60 | 1018.7 |
| 20260902211625 | 95 | 227 | 5.0 | 6.0 | 0.00 | 0.00 | 0.00 | 61 | 1018.5 |
| 20260902211119 | 94 | 180 | 3.0 | 9.0 | 0.00 | 0.00 | 0.00 | 60 | 1018.6 |
| 20260902210619 | 95 | 189 | 3.0 | 7.0 | 0.00 | 0.00 | 0.00 | 59 | 1018.7 |
| 20260902210114 | 95 | 203 | 0.0 | 10.0 | 0.00 | 0.00 | 0.00 | 60 | 1018.7 |
| 20260902205613 | 96 | 196 | 0.0 | 10.0 | 0.00 | 0.00 | 0.00 | 59 | 1018.8 |
| 20260902205109 | 95 | 262 | 4.0 | 8.0 | 0.00 | 0.00 | 0.00 | 59 | 1019.0 |
| 20260902204608 | 96 | 233 | 5.0 | 10.0 | 0.00 | 0.00 | 0.00 | 58 | 1018.8 |
| 20260902204103 | 95 | 262 | 2.0 | 14.0 | 0.00 | 0.00 | 0.00 | 58 | 1019.0 |
| 20260902203559 | 96 | 255 | 0.0 | 5.0 | 0.00 | 0.00 | 0.00 | 60 | 1019.0 |
| 20260902203058 | 96 | 111 | 0.0 | 5.0 | 0.00 | 0.00 | 0.00 | 60 | 1019.0 |
| 20260902202554 | 96 | 229 | 3.0 | 5.0 | 0.00 | 0.00 | 0.00 | 59 | 1019.2 |
| 20260902202050 | 95 | 180 | 0.0 | 7.0 | 0.00 | 0.00 | 0.00 | 58 | 1019.2 |
| 20260902201546 | 95 | 255 | 4.0 | 9.0 | 0.00 | 0.00 | 0.00 | 61 | 1019.4 |
| 20260902201044 | 94 | 300 | 0.0 | 8.0 | 0.00 | 0.00 | 0.00 | 59 | 1019.3 |
| 20260902200540 | 95 | 247 | 3.0 | 9.0 | 0.00 | 0.00 | 0.00 | 59 | 1019.3 |
| 20260902200036 | 95 | 90 | 3.0 | 12.0 | 0.00 | 0.00 | 0.00 | 59 | 1019.6 |
| 20260902195532 | 95 | 188 | 5.0 | 8.0 | 0.00 | 0.00 | 0.00 | 60 | 1019.6 |
| 20260902195031 | 96 | 188 | 5.0 | 9.0 | 0.00 | 0.00 | 0.00 | 59 | 1019.8 |
| 20260902194530 | 96 | 258 | 0.0 | 7.0 | 0.00 | 0.00 | 0.00 | 57 | 1019.5 |
| 20260902194026 | 96 | 234 | 3.0 | 9.0 | 0.00 | 0.00 | 0.00 | 60 | 1019.7 |
| 20260902193522 | 95 | 7 | 2.0 | 7.0 | 0.00 | 0.00 | 0.00 | 60 | 1019.6 |
| 20260902193021 | 95 | 221 | 6.0 | 8.0 | 0.00 | 0.00 | 0.00 | 59 | 1019.7 |
| 20260902192520 | 95 | 198 | 0.0 | 5.0 | 0.00 | 0.00 | 0.00 | 59 | 1019.8 |
| 20260902192019 | 96 | 114 | 2.0 | 7.0 | 0.00 | 0.00 | 0.00 | 58 | 1019.7 |
| 20260902191514 | 96 | 225 | 0.0 | 4.0 | 0.00 | 0.00 | 0.00 | 58 | 1019.9 |
| 20260902191009 | 96 | 180 | 5.0 | 7.0 | 0.00 | 0.00 | 0.00 | 61 | 1019.8 |
| 20260902190504 | 95 | 240 | 0.0 | 5.0 | 0.00 | 0.00 | 0.00 | 59 | 1019.8 |
| 20260902185959 | 95 | 187 | 0.0 | 5.0 | 0.00 | 0.00 | 0.00 | 60 | 1019.8 |
| 20260902185455 | 95 | 180 | 0.0 | 9.0 | 0.00 | 0.00 | 0.00 | 59 | 1019.9 |
| 20260902184950 | 96 | 0 | 3.0 | 4.0 | 0.00 | 0.00 | 0.00 | 61 | 1020.0 |
| 20260902184446 | 95 | 186 | 5.0 | 11.0 | 0.00 | 0.00 | 0.00 | 58 | 1020.0 |
| 20260902183941 | 95 | 231 | 0.0 | 5.0 | 0.00 | 0.00 | 0.00 | 60 | 1019.9 |
| 20260902183437 | 95 | 159 | 3.0 | 7.0 | 0.00 | 0.00 | 0.00 | 62 | 1020.0 |
| 20260902182933 | 94 | 196 | 5.0 | 13.0 | 0.00 | 0.00 | 0.00 | 60 | 1020.2 |
| 20260902182430 | 94 | 200 | 5.0 | 11.0 | 0.00 | 0.00 | 0.00 | 60 | 1020.3 |
| 20260902181926 | 94 | 23 | 0.0 | 17.0 | 0.00 | 0.00 | 0.00 | 63 | 1020.1 |
| 20260902181421 | 94 | 143 | 9.0 | 9.0 | 0.00 | 0.00 | 0.00 | 61 | 1020.2 |
| 20260902180921 | 93 | 299 | 3.0 | 8.0 | 0.00 | 0.00 | 0.00 | 61 | 1020.4 |
| 20260902180416 | 94 | 153 | 7.0 | 7.0 | 0.00 | 0.00 | 0.00 | 59 | 1020.2 |
| 20260902175912 | 95 | 15 | 2.0 | 5.0 | 0.00 | 0.00 | 0.00 | 62 | 1020.3 |
| 20260902175407 | 94 | 150 | 5.0 | 10.0 | 0.00 | 0.00 | 0.00 | 61 | 1020.4 |
| 20260902174903 | 94 | 261 | 3.0 | 5.0 | 0.00 | 0.00 | 0.00 | 61 | 1020.5 |
| 20260902174359 | 93 | 184 | 0.0 | 8.0 | 0.00 | 0.00 | 0.00 | 62 | 1020.3 |
| 20260902173854 | 93 | 315 | 3.0 | 7.0 | 0.00 | 0.00 | 0.00 | 63 | 1020.6 |
| 20260902173354 | 93 | 180 | 0.0 | 9.0 | 0.00 | 0.00 | 0.00 | 64 | 1020.4 |
| 20260902172849 | 93 | 231 | 3.0 | 11.0 | 0.00 | 0.00 | 0.00 | 62 | 1020.5 |
| 20260902172348 | 93 | 217 | 5.0 | 9.0 | 0.00 | 0.00 | 0.00 | 62 | 1020.8 |
| 20260902171843 | 93 | 251 | 0.0 | 7.0 | 0.00 | 0.00 | 0.00 | 63 | 1020.8 |
| 20260902171339 | 93 | 233 | 4.0 | 7.0 | 0.00 | 0.00 | 0.00 | 65 | 1020.9 |
| 20260902170835 | 92 | 188 | 3.0 | 9.0 | 0.00 | 0.00 | 0.00 | 63 | 1021.0 |
| 20260902170330 | 92 | 192 | 5.0 | 9.0 | 0.00 | 0.00 | 0.00 | 62 | 1020.9 |
| 20260902165826 | 92 | 186 | 4.0 | 11.0 | 0.00 | 0.00 | 0.00 | 63 | 1021.0 |
| 20260902165325 | 93 | 311 | 3.0 | 7.0 | 0.00 | 0.00 | 0.00 | 64 | 1020.9 |
| 20260902164820 | 93 | 306 | 2.0 | 7.0 | 0.00 | 0.00 | 0.00 | 62 | 1021.1 |
| 20260902164315 | 93 | 180 | 0.0 | 7.0 | 0.00 | 0.00 | 0.00 | 65 | 1020.9 |
| 20260902163808 | 94 | 255 | 5.0 | 5.0 | 0.00 | 0.00 | 0.00 | 66 | 1020.9 |
| 20260902163303 | 93 | 304 | 4.0 | 8.0 | 0.00 | 0.00 | 0.00 | 65 | 1020.9 |
| 20260902162801 | 92 | 291 | 5.0 | 10.0 | 0.00 | 0.00 | 0.00 | 62 | 1021.0 |
| 20260902162256 | 92 | 146 | 3.0 | 9.0 | 0.00 | 0.00 | 0.00 | 65 | 1020.9 |
| 20260902161751 | 92 | 250 | 3.0 | 11.0 | 0.00 | 0.00 | 0.00 | 63 | 1021.0 |
| 20260902161247 | 93 | 174 | 0.0 | 5.0 | 0.00 | 0.00 | 0.00 | 64 | 1021.1 |
| 20260902160743 | 93 | 0 | 0.0 | 4.0 | 0.00 | 0.00 | 0.00 | 65 | 1021.0 |
| 20260902160243 | 93 | 125 | 3.0 | 6.0 | 0.00 | 0.00 | 0.00 | 68 | 1021.0 |
| 20260902155741 | 92 | 195 | 0.0 | 5.0 | 0.00 | 0.00 | 0.00 | 66 | 1020.8 |
| 20260902155240 | 92 | 188 | 3.0 | 5.0 | 0.00 | 0.00 | 0.00 | 67 | 1020.9 |
| 20260902154735 | 92 | 255 | 4.0 | 7.0 | 0.00 | 0.00 | 0.00 | 66 | 1021.2 |
| 20260902154231 | 91 | 305 | 0.0 | 9.0 | 0.00 | 0.00 | 0.00 | 67 | 1020.9 |
| 20260902153729 | 91 | 214 | 3.0 | 5.0 | 0.00 | 0.00 | 0.00 | 69 | 1021.1 |
| 20260902153224 | 91 | 241 | 3.0 | 6.0 | 0.00 | 0.00 | 0.00 | 69 | 1021.0 |
| 20260902152720 | 91 | 270 | 2.0 | 5.0 | 0.00 | 0.00 | 0.00 | 68 | 1021.0 |
| 20260902152215 | 91 | 232 | 5.0 | 8.0 | 0.00 | 0.00 | 0.00 | 68 | 1021.0 |
| 20260902151711 | 90 | 294 | 3.0 | 7.0 | 0.00 | 0.00 | 0.00 | 70 | 1021.0 |
| 20260902151206 | 89 | 206 | 5.0 | 8.0 | 0.00 | 0.00 | 0.00 | 69 | 1021.3 |
| 20260902150701 | 90 | 204 | 6.0 | 7.0 | 0.00 | 0.00 | 0.00 | 69 | 1021.0 |
| 20260902150157 | 89 | 336 | 0.0 | 6.0 | 0.00 | 0.00 | 0.00 | 70 | 1021.0 |
| 20260902145656 | 89 | 295 | 3.0 | 10.0 | 0.00 | 0.00 | 0.00 | 70 | 1021.2 |
| 20260902145155 | 90 | 227 | 8.0 | 11.0 | 0.00 | 0.00 | 0.00 | 68 | 1021.0 |
| 20260902144652 | 90 | 185 | 0.0 | 9.0 | 0.00 | 0.00 | 0.00 | 73 | 1021.0 |
| 20260902144148 | 89 | 198 | 5.0 | 7.0 | 0.00 | 0.00 | 0.00 | 71 | 1021.1 |
| 20260902143648 | 89 | 90 | 4.0 | 5.0 | 0.00 | 0.00 | 0.00 | 71 | 1021.1 |
| 20260902143143 | 89 | 212 | 3.0 | 4.0 | 0.00 | 0.00 | 0.00 | 73 | 1021.2 |
| 20260902142639 | 89 | 337 | 3.0 | 7.0 | 0.00 | 0.00 | 0.00 | 71 | 1021.0 |
| 20260902142134 | 89 | 213 | 5.0 | 6.0 | 0.00 | 0.00 | 0.00 | 72 | 1021.1 |
| 20260902141633 | 89 | 145 | 0.0 | 5.0 | 0.00 | 0.00 | 0.00 | 73 | 1021.1 |
| 20260902141130 | 88 | 95 | 0.0 | 3.0 | 0.00 | 0.00 | 0.00 | 74 | 1021.1 |
| 20260902140624 | 87 | 300 | 3.0 | 9.0 | 0.00 | 0.00 | 0.00 | 75 | 1021.1 |
| 20260902140119 | 87 | 189 | 6.0 | 10.0 | 0.00 | 0.00 | 0.00 | 72 | 1020.9 |
| 20260902135619 | 88 | 289 | 0.0 | 5.0 | 0.00 | 0.00 | 0.00 | 72 | 1020.9 |
| 20260902135114 | 86 | 187 | 0.0 | 5.0 | 0.00 | 0.00 | 0.00 | 75 | 1021.1 |
| 20260902134609 | 86 | 243 | 3.0 | 7.0 | 0.00 | 0.00 | 0.00 | 77 | 1021.0 |
| 20260902134104 | 85 | 209 | 0.0 | 5.0 | 0.00 | 0.00 | 0.00 | 77 | 1020.9 |
| 20260902133558 | 85 | 198 | 0.0 | 5.0 | 0.00 | 0.00 | 0.00 | 77 | 1021.1 |
| 20260902133059 | 85 | 196 | 6.0 | 6.0 | 0.00 | 0.00 | 0.00 | 78 | 1020.9 |
| 20260902132554 | 84 | 202 | 0.0 | 4.0 | 0.00 | 0.00 | 0.00 | 78 | 1021.1 |
| 20260902132049 | 83 | 0 | 0.0 | 5.0 | 0.00 | 0.00 | 0.00 | 80 | 1021.1 |
| 20260902131546 | 83 | 199 | 3.0 | 9.0 | 0.00 | 0.00 | 0.00 | 79 | 1021.1 |
| 20260902131046 | 83 | 173 | 0.0 | 4.0 | 0.00 | 0.00 | 0.00 | 80 | 1021.3 |
| 20260902130542 | 82 | 200 | 2.0 | 5.0 | 0.00 | 0.00 | 0.00 | 80 | 1021.1 |
| 20260902130037 | 83 | 127 | 0.0 | 3.0 | 0.00 | 0.00 | 0.00 | 82 | 1021.1 |
| 20260902125533 | 82 | 154 | 2.0 | 3.0 | 0.00 | 0.00 | 0.00 | 84 | 1020.9 |
| 20260902125028 | 80 | 188 | 0.0 | 3.0 | 0.00 | 0.00 | 0.00 | 84 | 1021.2 |
| 20260902124525 | 80 | 160 | 2.0 | 4.0 | 0.00 | 0.00 | 0.00 | 85 | 1021.1 |
| 20260902124025 | 80 | 159 | 4.0 | 4.0 | 0.00 | 0.00 | 0.00 | 86 | 1020.8 |
| 20260902123521 | 79 | 180 | 0.0 | 4.0 | 0.00 | 0.00 | 0.00 | 87 | 1021.1 |
| 20260902123020 | 79 | 184 | 0.0 | 5.0 | 0.00 | 0.00 | 0.00 | 88 | 1021.3 |
| 20260902122515 | 78 | 148 | 3.0 | 3.0 | 0.00 | 0.00 | 0.00 | 90 | 1021.0 |
| 20260902122010 | 77 | 187 | 2.0 | 4.0 | 0.00 | 0.00 | 0.00 | 90 | 1020.8 |
| 20260902121505 | 77 | 110 | 0.0 | 3.0 | 0.00 | 0.00 | 0.00 | 92 | 1020.9 |
| 20260902121000 | 76 | 154 | 0.0 | 3.0 | 0.00 | 0.00 | 0.00 | 93 | 1020.8 |
| 20260902120456 | 75 | 174 | 2.0 | 4.0 | 0.00 | 0.00 | 0.00 | 95 | 1020.7 |
| 20260902115956 | 75 | 172 | 0.0 | 5.0 | 0.00 | 0.00 | 0.00 | 96 | 1020.7 |
| 20260902115452 | 74 | 127 | 3.0 | 3.0 | 0.00 | 0.00 | 0.00 | 97 | 1020.9 |
| 20260902114948 | 73 | 135 | 4.0 | 4.0 | 0.00 | 0.00 | 0.00 | 97 | 1020.9 |
| 20260902114444 | 73 | 120 | 2.0 | 3.0 | 0.00 | 0.00 | 0.00 | 98 | 1020.6 |
| 20260902113939 | 72 | 105 | 0.0 | 4.0 | 0.00 | 0.00 | 0.00 | 98 | 1020.4 |
| 20260902113434 | 72 | 114 | 2.0 | 4.0 | 0.00 | 0.00 | 0.00 | 98 | 1020.5 |
| 20260902112933 | 71 | 166 | 0.0 | 4.0 | 0.00 | 0.00 | 0.00 | 98 | 1020.6 |
| 20260902112430 | 71 | 131 | 0.0 | 3.0 | 0.00 | 0.00 | 0.00 | 98 | 1020.4 |
| 20260902111926 | 71 | 145 | 2.0 | 3.0 | 0.00 | 0.00 | 0.00 | 98 | 1020.4 |
| 20260902111422 | 71 | 99 | 0.0 | 3.0 | 0.00 | 0.00 | 0.00 | 98 | 1020.1 |
| 20260902110917 | 71 | 121 | 3.0 | 4.0 | 0.00 | 0.00 | 0.00 | 98 | 1020.2 |
| 20260902110414 | 71 | 140 | 3.0 | 4.0 | 0.00 | 0.00 | 0.00 | 98 | 1020.5 |
| 20260902105914 | 71 | 127 | 0.0 | 4.0 | 0.00 | 0.00 | 0.00 | 98 | 1020.5 |
| 20260902105409 | 71 | 120 | 0.0 | 4.0 | 0.00 | 0.00 | 0.00 | 98 | 1020.1 |
| 20260902104904 | 71 | 140 | 0.0 | 3.0 | 0.00 | 0.00 | 0.00 | 98 | 1019.9 |
| 20260902104400 | 71 | 111 | 0.0 | 5.0 | 0.00 | 0.00 | 0.00 | 98 | 1020.1 |
| 20260902103859 | 71 | 99 | 0.0 | 5.0 | 0.00 | 0.00 | 0.00 | 98 | 1020.0 |
| 20260902103354 | 71 | 124 | 0.0 | 3.0 | 0.00 | 0.00 | 0.00 | 98 | 1020.2 |
| 20260902102849 | 71 | 123 | 0.0 | 3.0 | 0.00 | 0.00 | 0.00 | 97 | 1020.2 |
| 20260902102348 | 71 | 157 | 3.0 | 3.0 | 0.00 | 0.00 | 0.00 | 97 | 1019.9 |
| 20260902101842 | 71 | 135 | 3.0 | 4.0 | 0.00 | 0.00 | 0.00 | 97 | 1020.0 |
| 20260902101337 | 72 | 112 | 0.0 | 3.0 | 0.00 | 0.00 | 0.00 | 97 | 1020.2 |
| 20260902100837 | 72 | 126 | 0.0 | 4.0 | 0.00 | 0.00 | 0.00 | 97 | 1020.3 |
| 20260902100336 | 72 | 140 | 3.0 | 4.0 | 0.00 | 0.00 | 0.00 | 97 | 1020.3 |
| 20260902095831 | 72 | 124 | 3.0 | 3.0 | 0.00 | 0.00 | 0.00 | 97 | 1020.1 |
| 20260902095326 | 72 | 108 | 3.0 | 4.0 | 0.00 | 0.00 | 0.00 | 96 | 1020.1 |
| 20260902094825 | 72 | 107 | 3.0 | 3.0 | 0.00 | 0.00 | 0.00 | 96 | 1020.1 |
| 20260902094322 | 72 | 117 | 2.0 | 3.0 | 0.00 | 0.00 | 0.00 | 96 | 1020.1 |
| 20260902093821 | 72 | 120 | 0.0 | 4.0 | 0.00 | 0.00 | 0.00 | 96 | 1020.0 |
| 20260902093316 | 72 | 111 | 2.0 | 3.0 | 0.00 | 0.00 | 0.00 | 95 | 1020.1 |
| 20260902092815 | 72 | 127 | 3.0 | 4.0 | 0.00 | 0.00 | 0.00 | 95 | 1020.2 |
| 20260902092311 | 72 | 117 | 3.0 | 4.0 | 0.00 | 0.00 | 0.00 | 95 | 1019.9 |
| 20260902091811 | 73 | 126 | 2.0 | 4.0 | 0.00 | 0.00 | 0.00 | 95 | 1020.1 |
| 20260902091307 | 73 | 135 | 3.0 | 3.0 | 0.00 | 0.00 | 0.00 | 94 | 1019.9 |
| 20260902090803 | 73 | 103 | 3.0 | 3.0 | 0.00 | 0.00 | 0.00 | 94 | 1019.9 |
| 20260902090302 | 73 | 126 | 0.0 | 3.0 | 0.00 | 0.00 | 0.00 | 94 | 1020.0 |
| 20260902085801 | 73 | 124 | 0.0 | 3.0 | 0.00 | 0.00 | 0.00 | 94 | 1019.9 |
| 20260902085257 | 73 | 120 | 2.0 | 3.0 | 0.00 | 0.00 | 0.00 | 93 | 1019.9 |
| 20260902084752 | 74 | 117 | 2.0 | 3.0 | 0.00 | 0.00 | 0.00 | 93 | 1019.8 |
| 20260902084248 | 74 | 127 | 3.0 | 3.0 | 0.00 | 0.00 | 0.00 | 93 | 1020.0 |
| 20260902083743 | 74 | 117 | 3.0 | 3.0 | 0.00 | 0.00 | 0.00 | 93 | 1020.0 |
| 20260902083238 | 74 | 117 | 2.0 | 3.0 | 0.00 | 0.00 | 0.00 | 93 | 1019.7 |
| 20260902082733 | 74 | 102 | 3.0 | 3.0 | 0.00 | 0.00 | 0.00 | 93 | 1020.0 |
| 20260902082230 | 74 | 131 | 0.0 | 3.0 | 0.00 | 0.00 | 0.00 | 93 | 1019.6 |
| 20260902081726 | 74 | 151 | 0.0 | 4.0 | 0.00 | 0.00 | 0.00 | 93 | 1019.9 |
| 20260902081221 | 74 | 126 | 2.0 | 3.0 | 0.00 | 0.00 | 0.00 | 93 | 1019.8 |
| 20260902080716 | 74 | 90 | 0.0 | 3.0 | 0.00 | 0.00 | 0.00 | 93 | 1019.5 |
| 20260902080213 | 74 | 120 | 2.0 | 3.0 | 0.00 | 0.00 | 0.00 | 92 | 1019.5 |
| 20260902075712 | 75 | 106 | 0.0 | 2.0 | 0.00 | 0.00 | 0.00 | 92 | 1019.6 |
| 20260902075209 | 74 | 121 | 3.0 | 3.0 | 0.00 | 0.00 | 0.00 | 93 | 1019.5 |
| 20260902074708 | 74 | 81 | 0.0 | 3.0 | 0.00 | 0.00 | 0.00 | 92 | 1019.5 |
| 20260902074203 | 74 | 106 | 0.0 | 3.0 | 0.00 | 0.00 | 0.00 | 92 | 1019.6 |
| 20260902073659 | 74 | 99 | 0.0 | 3.0 | 0.00 | 0.00 | 0.00 | 92 | 1019.6 |
| 20260902073155 | 75 | 114 | 0.0 | 3.0 | 0.00 | 0.00 | 0.00 | 92 | 1019.5 |
| 20260902072651 | 74 | 120 | 0.0 | 3.0 | 0.00 | 0.00 | 0.00 | 92 | 1019.5 |
| 20260902072147 | 74 | 127 | 3.0 | 3.0 | 0.00 | 0.00 | 0.00 | 92 | 1019.8 |
| 20260902071642 | 75 | 99 | 0.0 | 2.0 | 0.00 | 0.00 | 0.00 | 92 | 1019.5 |
| 20260902071138 | 75 | 148 | 0.0 | 3.0 | 0.00 | 0.00 | 0.00 | 91 | 1019.7 |
| 20260902070634 | 75 | 126 | 0.0 | 3.0 | 0.00 | 0.00 | 0.00 | 91 | 1019.6 |
| 20260902070133 | 75 | 114 | 0.0 | 3.0 | 0.00 | 0.00 | 0.00 | 91 | 1019.7 |
| 20260902065632 | 75 | 126 | 2.0 | 3.0 | 0.00 | 0.00 | 0.00 | 91 | 1019.7 |
| 20260902065128 | 75 | 123 | 0.0 | 3.0 | 0.00 | 0.00 | 0.00 | 90 | 1019.6 |
| 20260902064623 | 75 | 105 | 2.0 | 2.0 | 0.00 | 0.00 | 0.00 | 90 | 1019.8 |
| 20260902064119 | 75 | 106 | 0.0 | 2.0 | 0.00 | 0.00 | 0.00 | 90 | 1019.6 |
| 20260902063614 | 76 | 106 | 2.0 | 2.0 | 0.00 | 0.00 | 0.00 | 89 | 1019.6 |
| 20260902063109 | 76 | 90 | 0.0 | 2.0 | 0.00 | 0.00 | 0.00 | 89 | 1019.8 |
| 20260902062607 | 76 | 90 | 0.0 | 2.0 | 0.00 | 0.00 | 0.00 | 89 | 1019.8 |
| 20260902062103 | 76 | 114 | 0.0 | 2.0 | 0.00 | 0.00 | 0.00 | 89 | 1019.8 |
| 20260902061603 | 76 | 114 | 3.0 | 3.0 | 0.00 | 0.00 | 0.00 | 88 | 1019.8 |
| 20260902061059 | 76 | 106 | 0.0 | 3.0 | 0.00 | 0.00 | 0.00 | 88 | 1019.9 |
| 20260902060555 | 77 | 109 | 2.0 | 3.0 | 0.00 | 0.00 | 0.00 | 88 | 1019.7 |
| 20260902060051 | 77 | 165 | 0.0 | 2.0 | 0.00 | 0.00 | 0.00 | 88 | 1019.7 |
| 20260902055546 | 77 | 120 | 0.0 | 2.0 | 0.00 | 0.00 | 0.00 | 88 | 1019.7 |
| 20260902055042 | 77 | 109 | 2.0 | 3.0 | 0.00 | 0.00 | 0.00 | 88 | 1019.6 |
| 20260902054537 | 77 | 157 | 0.0 | 3.0 | 0.00 | 0.00 | 0.00 | 87 | 1019.6 |
| 20260902054032 | 77 | 111 | 2.0 | 3.0 | 0.00 | 0.00 | 0.00 | 87 | 1019.7 |
| 20260902053532 | 77 | 90 | 0.0 | 2.0 | 0.00 | 0.00 | 0.00 | 86 | 1020.0 |
| 20260902053027 | 78 | 114 | 2.0 | 3.0 | 0.00 | 0.00 | 0.00 | 86 | 1020.0 |
| 20260902052521 | 78 | 166 | 0.0 | 2.0 | 0.00 | 0.00 | 0.00 | 85 | 1019.8 |
| 20260902052017 | 78 | 173 | 0.0 | 3.0 | 0.00 | 0.00 | 0.00 | 85 | 1019.8 |
| 20260902051517 | 78 | 120 | 2.0 | 2.0 | 0.00 | 0.00 | 0.00 | 85 | 1019.8 |
| 20260902051015 | 79 | 180 | 0.0 | 3.0 | 0.00 | 0.00 | 0.00 | 84 | 1019.8 |
| 20260902050510 | 78 | 144 | 3.0 | 3.0 | 0.00 | 0.00 | 0.00 | 84 | 1019.7 |
| 20260902050008 | 79 | 151 | 2.0 | 5.0 | 0.00 | 0.00 | 0.00 | 84 | 1019.8 |
| 20260902045501 | 79 | 114 | 0.0 | 3.0 | 0.00 | 0.00 | 0.00 | 83 | 1019.7 |
| 20260902044957 | 79 | 184 | 3.0 | 5.0 | 0.00 | 0.00 | 0.00 | 84 | 1019.7 |
| 20260902044452 | 79 | 151 | 0.0 | 3.0 | 0.00 | 0.00 | 0.00 | 83 | 1019.8 |
| 20260902043948 | 79 | 132 | 0.0 | 3.0 | 0.00 | 0.00 | 0.00 | 83 | 1019.8 |
| 20260902043443 | 79 | 49 | 0.0 | 4.0 | 0.00 | 0.00 | 0.00 | 82 | 1019.7 |
| 20260902042938 | 79 | 162 | 0.0 | 3.0 | 0.00 | 0.00 | 0.00 | 82 | 1019.7 |
| 20260902042437 | 80 | 162 | 0.0 | 3.0 | 0.00 | 0.00 | 0.00 | 82 | 1019.9 |
| 20260902041932 | 80 | 82 | 0.0 | 3.0 | 0.00 | 0.00 | 0.00 | 82 | 1019.8 |
| 20260902041427 | 80 | 114 | 0.0 | 3.0 | 0.00 | 0.00 | 0.00 | 82 | 1019.7 |
| 20260902040926 | 80 | 103 | 2.0 | 3.0 | 0.00 | 0.00 | 0.00 | 81 | 1019.9 |
| 20260902040421 | 80 | 161 | 0.0 | 3.0 | 0.00 | 0.00 | 0.00 | 81 | 1019.7 |
| 20260902035920 | 80 | 162 | 0.0 | 3.0 | 0.00 | 0.00 | 0.00 | 82 | 1019.9 |
| 20260902035415 | 80 | 160 | 0.0 | 5.0 | 0.00 | 0.00 | 0.00 | 82 | 1019.7 |
| 20260902034915 | 80 | 103 | 0.0 | 3.0 | 0.00 | 0.00 | 0.00 | 81 | 1019.7 |
| 20260902034410 | 80 | 157 | 2.0 | 6.0 | 0.00 | 0.00 | 0.00 | 81 | 1019.6 |
| 20260902033909 | 80 | 154 | 0.0 | 3.0 | 0.00 | 0.00 | 0.00 | 82 | 1019.7 |
| 20260902033403 | 80 | 90 | 0.0 | 3.0 | 0.00 | 0.00 | 0.00 | 82 | 1019.8 |
| 20260902032902 | 80 | 145 | 0.0 | 4.0 | 0.00 | 0.00 | 0.00 | 82 | 1019.6 |
| 20260902032356 | 80 | 114 | 0.0 | 3.0 | 0.00 | 0.00 | 0.00 | 82 | 1019.9 |
| 20260902031851 | 80 | 90 | 2.0 | 3.0 | 0.00 | 0.00 | 0.00 | 83 | 1019.7 |
| 20260902031347 | 80 | 98 | 2.0 | 3.0 | 0.00 | 0.00 | 0.00 | 83 | 1019.6 |
| 20260902030842 | 80 | 145 | 0.0 | 2.0 | 0.00 | 0.00 | 0.00 | 83 | 1019.8 |
| 20260902030337 | 80 | 106 | 0.0 | 3.0 | 0.00 | 0.00 | 0.00 | 83 | 1019.7 |
| 20260902025836 | 80 | 154 | 0.0 | 3.0 | 0.00 | 0.00 | 0.00 | 83 | 1019.8 |
| 20260902025332 | 80 | 120 | 0.0 | 3.0 | 0.00 | 0.00 | 0.00 | 83 | 1019.8 |
| 20260902024826 | 80 | 145 | 0.0 | 3.0 | 0.00 | 0.00 | 0.00 | 84 | 1019.9 |
| 20260902024322 | 80 | 135 | 0.0 | 3.0 | 0.00 | 0.00 | 0.00 | 84 | 1019.8 |
| 20260902023817 | 80 | 120 | 0.0 | 3.0 | 0.00 | 0.00 | 0.00 | 84 | 1020.0 |
| 20260902023313 | 80 | 120 | 0.0 | 3.0 | 0.00 | 0.00 | 0.00 | 84 | 1020.0 |
| 20260902022811 | 80 | 165 | 0.0 | 2.0 | 0.00 | 0.00 | 0.00 | 84 | 1019.9 |
| 20260902022301 | 80 | 98 | 0.0 | 3.0 | 0.00 | 0.00 | 0.00 | 84 | 1019.7 |
| 20260902021757 | 80 | 99 | 2.0 | 2.0 | 0.00 | 0.00 | 0.00 | 83 | 1019.6 |
| 20260902021257 | 80 | 168 | 2.0 | 3.0 | 0.00 | 0.00 | 0.00 | 84 | 1019.6 |
| 20260902020753 | 81 | 106 | 0.0 | 2.0 | 0.00 | 0.00 | 0.00 | 83 | 1019.6 |
| 20260902020249 | 81 | 180 | 0.0 | 3.0 | 0.00 | 0.00 | 0.00 | 83 | 1019.7 |
| 20260902015744 | 81 | 151 | 0.0 | 2.0 | 0.00 | 0.00 | 0.00 | 83 | 1019.8 |
| 20260902015241 | 81 | 151 | 0.0 | 2.0 | 0.00 | 0.00 | 0.00 | 83 | 1019.7 |
| 20260902014736 | 82 | 286 | 2.0 | 3.0 | 0.00 | 0.00 | 0.00 | 83 | 1019.7 |
| 20260902014232 | 81 | 240 | 2.0 | 2.0 | 0.00 | 0.00 | 0.00 | 83 | 1019.4 |
| 20260902013730 | 82 | 105 | 0.0 | 2.0 | 0.00 | 0.00 | 0.00 | 83 | 1019.4 |
| 20260902013227 | 81 | 229 | 0.0 | 4.0 | 0.00 | 0.00 | 0.00 | 83 | 1019.5 |
| 20260902012722 | 82 | 157 | 0.0 | 3.0 | 0.00 | 0.00 | 0.00 | 83 | 1019.4 |
| 20260902012218 | 81 | 195 | 0.0 | 2.0 | 0.00 | 0.00 | 0.00 | 83 | 1019.3 |
| 20260902011713 | 82 | 97 | 0.0 | 2.0 | 0.00 | 0.00 | 0.00 | 83 | 1019.4 |
| 20260902011212 | 81 | 151 | 0.0 | 2.0 | 0.00 | 0.00 | 0.00 | 83 | 1019.4 |
| 20260902010706 | 81 | 90 | 0.0 | 3.0 | 0.00 | 0.00 | 0.00 | 83 | 1019.2 |
| 20260902010202 | 82 | 99 | 0.0 | 2.0 | 0.00 | 0.00 | 0.00 | 83 | 1019.2 |
| 20260902005659 | 82 | 151 | 0.0 | 2.0 | 0.00 | 0.00 | 0.00 | 82 | 1019.3 |
| 20260902005156 | 82 | 106 | 0.0 | 2.0 | 0.00 | 0.00 | 0.00 | 82 | 1019.2 |
| 20260902004655 | 82 | 99 | 0.0 | 2.0 | 0.00 | 0.00 | 0.00 | 81 | 1019.0 |
| 20260902004150 | 82 | 105 | 0.0 | 2.0 | 0.00 | 0.00 | 0.00 | 81 | 1019.3 |
| 20260902003646 | 82 | 114 | 0.0 | 0.0 | 0.00 | 0.00 | 0.00 | 80 | 1019.4 |
| 20260902003142 | 82 | 165 | 0.0 | 0.0 | 0.00 | 0.00 | 0.00 | 80 | 1019.1 |
| 20260902002637 | 83 | 165 | 0.0 | 0.0 | 0.00 | 0.00 | 0.00 | 79 | 1019.4 |
| 20260902002136 | 83 | 165 | 0.0 | 0.0 | 0.00 | 0.00 | 0.00 | 78 | 1019.4 |